STARLINK-35968

Last updated on Wed Dec 31 2025 00:02:06 GMT+0000 (Coordinated Universal Time)

1 66636U 25271V 25364.54736652 .00073314 00000+0 18264-2 0 9992 2 66636 53.1621 103.0104 0001371 58.8888 301.2251 15.39601190 6952
UTC large
Height (km)
Speed (km/s)
/
Latitude / Longitude
Inclination (degrees)
Orbital Period (minutes)
Azimuth
Elevation
Range (km)
Doppler Factor

Next 0 passes for location: London (51.5072 / 0.1276)

Sorry there are no passes over London.